| time (UTC) | temp F | wind direction | speed MPH | gust MPH | rain 1hr in | rain 24hr in | rain mn in | humidity % | barometer mb |
| 20260504000514 | 65 | 217 | 8.0 | 13.0 | 0.00 | 0.00 | 0.00 | 47 | 1008.9 |
| 20260504000030 | 66 | 207 | 7.0 | 12.0 | 0.00 | 0.00 | 0.00 | 47 | 1008.9 |
| 20260503235508 | 66 | 208 | 9.0 | 12.0 | 0.00 | 0.00 | 0.00 | 47 | 1008.9 |
| 20260503235011 | 65 | 221 | 10.0 | 15.0 | 0.00 | 0.00 | 0.00 | 48 | 1008.9 |
| 20260503234543 | 65 | 225 | 10.0 | 17.0 | 0.00 | 0.00 | 0.00 | 47 | 1009.0 |
| 20260503234007 | 65 | 216 | 10.0 | 14.0 | 0.00 | 0.00 | 0.00 | 47 | 1009.1 |
| 20260503233509 | 65 | 219 | 9.0 | 17.0 | 0.00 | 0.00 | 0.00 | 48 | 1009.1 |
| 20260503233034 | 65 | 219 | 12.0 | 20.0 | 0.00 | 0.00 | 0.00 | 47 | 1009.1 |
| 20260503232513 | 65 | 206 | 10.0 | 20.0 | 0.00 | 0.00 | 0.00 | 46 | 1009.1 |
| 20260503232011 | 65 | 230 | 10.0 | 20.0 | 0.00 | 0.00 | 0.00 | 47 | 1009.2 |
| 20260503231532 | 65 | 205 | 12.0 | 20.0 | 0.00 | 0.00 | 0.00 | 47 | 1009.2 |
| 20260503231013 | 65 | 202 | 9.0 | 19.0 | 0.00 | 0.00 | 0.00 | 47 | 1009.3 |
| 20260503230516 | 64 | 221 | 10.0 | 19.0 | 0.00 | 0.00 | 0.00 | 49 | 1009.3 |
| 20260503230039 | 63 | 228 | 9.0 | 13.0 | 0.00 | 0.00 | 0.00 | 50 | 1009.3 |
| 20260503225516 | 63 | 261 | 9.0 | 19.0 | 0.00 | 0.00 | 0.00 | 50 | 1009.4 |
| 20260503225015 | 63 | 219 | 10.0 | 19.0 | 0.00 | 0.00 | 0.00 | 50 | 1009.6 |
| 20260503224527 | 63 | 233 | 12.0 | 20.0 | 0.00 | 0.00 | 0.00 | 50 | 1009.6 |
| 20260503224009 | 64 | 219 | 13.0 | 23.0 | 0.00 | 0.00 | 0.00 | 49 | 1009.7 |
| 20260503223514 | 64 | 212 | 15.0 | 23.0 | 0.00 | 0.00 | 0.00 | 47 | 1009.7 |
| 20260503223029 | 65 | 217 | 15.0 | 21.0 | 0.00 | 0.00 | 0.00 | 46 | 1009.7 |
| 20260503222510 | 65 | 165 | 11.0 | 25.0 | 0.00 | 0.00 | 0.00 | 47 | 1009.7 |
| 20260503222017 | 64 | 221 | 14.0 | 25.0 | 0.00 | 0.00 | 0.00 | 47 | 1009.9 |
| 20260503221532 | 64 | 230 | 17.0 | 25.0 | 0.00 | 0.00 | 0.00 | 48 | 1010.0 |
| 20260503221013 | 64 | 214 | 19.0 | 33.0 | 0.00 | 0.00 | 0.00 | 46 | 1009.9 |
| 20260503220517 | 65 | 212 | 21.0 | 29.0 | 0.00 | 0.00 | 0.00 | 46 | 1010.0 |
| 20260503220044 | 64 | 194 | 17.0 | 25.0 | 0.00 | 0.00 | 0.00 | 46 | 1010.0 |
| 20260503215517 | 64 | 228 | 15.0 | 25.0 | 0.00 | 0.00 | 0.00 | 47 | 1010.0 |
| 20260503215015 | 64 | 205 | 17.0 | 25.0 | 0.00 | 0.00 | 0.00 | 47 | 1010.0 |
| 20260503214531 | 64 | 207 | 15.0 | 25.0 | 0.00 | 0.00 | 0.00 | 47 | 1009.9 |
| 20260503214011 | 63 | 213 | 8.0 | 22.0 | 0.00 | 0.00 | 0.00 | 48 | 1009.8 |
| 20260503213514 | 62 | 214 | 13.0 | 26.0 | 0.00 | 0.00 | 0.00 | 47 | 1009.9 |
| 20260503213029 | 63 | 264 | 15.0 | 26.0 | 0.00 | 0.00 | 0.00 | 46 | 1010.0 |
| 20260503212510 | 64 | 212 | 16.0 | 26.0 | 0.00 | 0.00 | 0.00 | 45 | 1010.0 |
| 20260503212011 | 63 | 191 | 16.0 | 24.0 | 0.00 | 0.00 | 0.00 | 45 | 1010.2 |
| 20260503211531 | 63 | 212 | 17.0 | 28.0 | 0.00 | 0.00 | 0.00 | 46 | 1010.2 |
| 20260503211015 | 64 | 323 | 18.0 | 28.0 | 0.00 | 0.00 | 0.00 | 44 | 1010.3 |
| 20260503210511 | 63 | 227 | 17.0 | 29.0 | 0.00 | 0.00 | 0.00 | 45 | 1010.3 |
| 20260503210031 | 63 | 195 | 17.0 | 29.0 | 0.00 | 0.00 | 0.00 | 45 | 1010.4 |
| 20260503205514 | 64 | 212 | 12.0 | 26.0 | 0.00 | 0.00 | 0.00 | 47 | 1010.5 |
| 20260503205005 | 63 | 220 | 14.0 | 29.0 | 0.00 | 0.00 | 0.00 | 46 | 1010.5 |
| 20260503204506 | 63 | 218 | 17.0 | 29.0 | 0.00 | 0.00 | 0.00 | 47 | 1010.7 |
| 20260503204009 | 63 | 214 | 13.0 | 21.0 | 0.00 | 0.00 | 0.00 | 47 | 1010.7 |
| 20260503203504 | 62 | 199 | 12.0 | 27.0 | 0.00 | 0.00 | 0.00 | 46 | 1010.7 |
| 20260503203018 | 63 | 275 | 16.0 | 29.0 | 0.00 | 0.00 | 0.00 | 45 | 1010.7 |
| 20260503202506 | 63 | 216 | 13.0 | 28.0 | 0.00 | 0.00 | 0.00 | 47 | 1010.8 |
| 20260503202004 | 62 | 212 | 18.0 | 27.0 | 0.00 | 0.00 | 0.00 | 46 | 1010.9 |
| 20260503201508 | 62 | 224 | 13.0 | 27.0 | 0.00 | 0.00 | 0.00 | 45 | 1011.0 |
| 20260503201006 | 62 | 208 | 15.0 | 26.0 | 0.00 | 0.00 | 0.00 | 45 | 1011.1 |
| 20260503200505 | 62 | 236 | 13.0 | 26.0 | 0.00 | 0.00 | 0.00 | 45 | 1011.2 |
| 20260503200008 | 62 | 205 | 16.0 | 28.0 | 0.00 | 0.00 | 0.00 | 44 | 1011.3 |
| 20260503195503 | 62 | 204 | 13.0 | 28.0 | 0.00 | 0.00 | 0.00 | 43 | 1011.3 |
| 20260503195005 | 62 | 198 | 16.0 | 28.0 | 0.00 | 0.00 | 0.00 | 45 | 1011.3 |
| 20260503194507 | 62 | 213 | 17.0 | 23.0 | 0.00 | 0.00 | 0.00 | 44 | 1011.4 |
| 20260503194005 | 62 | 226 | 14.0 | 23.0 | 0.00 | 0.00 | 0.00 | 44 | 1011.4 |
| 20260503193508 | 62 | 203 | 11.0 | 23.0 | 0.00 | 0.00 | 0.00 | 43 | 1011.6 |
| 20260503193011 | 62 | 216 | 13.0 | 20.0 | 0.00 | 0.00 | 0.00 | 43 | 1011.6 |
| 20260503192505 | 62 | 207 | 10.0 | 24.0 | 0.00 | 0.00 | 0.00 | 43 | 1011.8 |
| 20260503192005 | 62 | 175 | 11.0 | 29.0 | 0.00 | 0.00 | 0.00 | 44 | 1012.0 |
| 20260503191518 | 62 | 219 | 20.0 | 28.0 | 0.00 | 0.00 | 0.00 | 45 | 1012.2 |
| 20260503191009 | 62 | 220 | 13.0 | 27.0 | 0.00 | 0.00 | 0.00 | 44 | 1012.1 |
| 20260503190504 | 61 | 220 | 15.0 | 24.0 | 0.00 | 0.00 | 0.00 | 43 | 1012.2 |
| 20260503190008 | 61 | 225 | 16.0 | 23.0 | 0.00 | 0.00 | 0.00 | 43 | 1012.4 |
| 20260503185503 | 61 | 205 | 11.0 | 16.0 | 0.00 | 0.00 | 0.00 | 44 | 1012.5 |
| 20260503185006 | 61 | 224 | 12.0 | 19.0 | 0.00 | 0.00 | 0.00 | 44 | 1012.6 |
| 20260503184509 | 62 | 219 | 12.0 | 23.0 | 0.00 | 0.00 | 0.00 | 46 | 1012.7 |
| 20260503184004 | 62 | 224 | 10.0 | 25.0 | 0.00 | 0.00 | 0.00 | 45 | 1012.7 |
| 20260503183505 | 62 | 221 | 14.0 | 25.0 | 0.00 | 0.00 | 0.00 | 45 | 1012.8 |
| 20260503183010 | 62 | 208 | 14.0 | 24.0 | 0.00 | 0.00 | 0.00 | 45 | 1013.0 |
| 20260503182507 | 61 | 207 | 18.0 | 24.0 | 0.00 | 0.00 | 0.00 | 45 | 1013.1 |
| 20260503182006 | 61 | 207 | 9.0 | 18.0 | 0.00 | 0.00 | 0.00 | 46 | 1013.2 |
| 20260503181510 | 61 | 238 | 9.0 | 18.0 | 0.00 | 0.00 | 0.00 | 47 | 1013.5 |
| 20260503181006 | 59 | 201 | 7.0 | 17.0 | 0.00 | 0.00 | 0.00 | 49 | 1013.7 |
| 20260503180504 | 59 | 220 | 12.0 | 15.0 | 0.00 | 0.00 | 0.00 | 52 | 1014.1 |
| 20260503180017 | 58 | 244 | 8.0 | 18.0 | 0.00 | 0.00 | 0.00 | 52 | 1014.2 |
| 20260503175503 | 58 | 231 | 10.0 | 16.0 | 0.00 | 0.00 | 0.00 | 52 | 1014.2 |
| 20260503175007 | 58 | 219 | 9.0 | 16.0 | 0.00 | 0.00 | 0.00 | 51 | 1014.3 |
| 20260503174527 | 58 | 229 | 9.0 | 17.0 | 0.00 | 0.00 | 0.00 | 51 | 1014.6 |
| 20260503174011 | 58 | 248 | 10.0 | 16.0 | 0.00 | 0.00 | 0.00 | 50 | 1014.7 |
| 20260503173512 | 58 | 217 | 10.0 | 20.0 | 0.00 | 0.00 | 0.00 | 51 | 1014.6 |
| 20260503173034 | 58 | 231 | 13.0 | 20.0 | 0.00 | 0.00 | 0.00 | 51 | 1014.6 |
| 20260503172514 | 58 | 217 | 8.0 | 21.0 | 0.00 | 0.00 | 0.00 | 52 | 1014.6 |
| 20260503172010 | 58 | 206 | 12.0 | 18.0 | 0.00 | 0.00 | 0.00 | 50 | 1014.7 |
| 20260503171532 | 58 | 245 | 12.0 | 18.0 | 0.00 | 0.00 | 0.00 | 50 | 1014.6 |
| 20260503171011 | 58 | 214 | 13.0 | 18.0 | 0.00 | 0.00 | 0.00 | 52 | 1014.6 |
| 20260503170510 | 58 | 212 | 12.0 | 20.0 | 0.00 | 0.00 | 0.00 | 52 | 1014.6 |
| 20260503150512 | 55 | 236 | 18.0 | 23.0 | 0.00 | 0.00 | 0.00 | 58 | 1016.1 |
| 20260503131010 | 51 | 210 | 12.0 | 19.0 | 0.00 | 0.00 | 0.00 | 60 | 1017.3 |
| 20260503130508 | 51 | 219 | 12.0 | 19.0 | 0.00 | 0.00 | 0.00 | 59 | 1017.4 |
| 20260503110510 | 43 | 242 | 7.0 | 12.0 | 0.00 | 0.00 | 0.00 | 67 | 1016.8 |
| 20260503090508 | 42 | 206 | 7.0 | 12.0 | 0.00 | 0.00 | 0.00 | 65 | 1017.1 |
| 20260503081532 | 43 | 221 | 7.0 | 10.0 | 0.00 | 0.00 | 0.00 | 63 | 1017.1 |
| 20260503081009 | 42 | 223 | 6.0 | 10.0 | 0.00 | 0.00 | 0.00 | 64 | 1017.2 |
| 20260503080511 | 43 | 240 | 6.0 | 9.0 | 0.00 | 0.00 | 0.00 | 63 | 1017.3 |
| 20260503072512 | 42 | 234 | 5.0 | 6.0 | 0.00 | 0.00 | 0.00 | 65 | 1017.3 |
| 20260503072010 | 42 | 234 | 5.0 | 6.0 | 0.00 | 0.00 | 0.00 | 67 | 1017.3 |
| 20260503071527 | 42 | 227 | 4.0 | 6.0 | 0.00 | 0.00 | 0.00 | 67 | 1017.4 |
| 20260503071009 | 42 | 227 | 5.0 | 6.0 | 0.00 | 0.00 | 0.00 | 67 | 1017.5 |
| 20260503070508 | 42 | 244 | 4.0 | 5.0 | 0.00 | 0.00 | 0.00 | 67 | 1017.5 |
| 20260503055011 | 43 | 236 | 4.0 | 7.0 | 0.00 | 0.00 | 0.00 | 63 | 1018.1 |
| 20260503054523 | 43 | 220 | 4.0 | 7.0 | 0.00 | 0.00 | 0.00 | 63 | 1018.1 |
| 20260503054011 | 44 | 211 | 5.0 | 7.0 | 0.00 | 0.00 | 0.00 | 61 | 1018.1 |
| 20260503053509 | 44 | 211 | 4.0 | 6.0 | 0.00 | 0.00 | 0.00 | 62 | 1018.1 |
| 20260503053026 | 44 | 225 | 4.0 | 6.0 | 0.00 | 0.00 | 0.00 | 60 | 1018.1 |
| 20260503052511 | 44 | 224 | 4.0 | 5.0 | 0.00 | 0.00 | 0.00 | 60 | 1018.2 |
| 20260503052008 | 44 | 219 | 3.0 | 7.0 | 0.00 | 0.00 | 0.00 | 59 | 1018.2 |
| 20260503051525 | 44 | 229 | 4.0 | 7.0 | 0.00 | 0.00 | 0.00 | 60 | 1018.3 |
| 20260503051009 | 45 | 224 | 4.0 | 7.0 | 0.00 | 0.00 | 0.00 | 58 | 1018.3 |
| 20260503050507 | 45 | 207 | 4.0 | 7.0 | 0.00 | 0.00 | 0.00 | 59 | 1018.2 |
| 20260503050012 | 45 | 246 | 4.0 | 6.0 | 0.00 | 0.00 | 0.00 | 1018.3 | |
| 20260503045504 | 45 | 229 | 4.0 | 6.0 | 0.00 | 0.00 | 0.00 | 56 | 1018.3 |
| 20260503045010 | 46 | 222 | 3.0 | 5.0 | 0.00 | 0.00 | 0.00 | 56 | 1018.3 |
| 20260503044523 | 46 | 223 | 4.0 | 5.0 | 0.00 | 0.00 | 0.00 | 55 | 1018.3 |
| 20260503044010 | 46 | 225 | 3.0 | 6.0 | 0.00 | 0.00 | 0.00 | 55 | 1018.3 |
| 20260503043509 | 46 | 217 | 2.0 | 5.0 | 0.00 | 0.00 | 0.00 | 55 | 1018.2 |
| 20260503043027 | 46 | 226 | 3.0 | 6.0 | 0.00 | 0.00 | 0.00 | 55 | 1018.3 |
| 20260503042510 | 46 | 219 | 4.0 | 6.0 | 0.00 | 0.00 | 0.00 | 56 | 1018.3 |
| 20260503042010 | 46 | 217 | 5.0 | 6.0 | 0.00 | 0.00 | 0.00 | 56 | 1018.3 |
| 20260503041527 | 46 | 234 | 4.0 | 7.0 | 0.00 | 0.00 | 0.00 | 55 | 1018.3 |
| 20260503041008 | 46 | 231 | 4.0 | 7.0 | 0.00 | 0.00 | 0.00 | 55 | 1018.2 |
| 20260503040511 | 46 | 225 | 3.0 | 5.0 | 0.00 | 0.00 | 0.00 | 54 | 1018.2 |
| 20260503040020 | 46 | 228 | 3.0 | 4.0 | 0.00 | 0.00 | 0.00 | 54 | 1018.2 |
| 20260503035508 | 47 | 235 | 2.0 | 4.0 | 0.00 | 0.00 | 0.00 | 54 | 1018.3 |
| 20260503035007 | 47 | 176 | 3.0 | 5.0 | 0.00 | 0.00 | 0.00 | 53 | 1018.3 |
| 20260503034536 | 46 | 217 | 3.0 | 4.0 | 0.00 | 0.00 | 0.00 | 53 | 1018.3 |
| 20260503034012 | 47 | 216 | 2.0 | 4.0 | 0.00 | 0.00 | 0.00 | 55 | 1018.4 |
| 20260503033510 | 47 | 211 | 2.0 | 4.0 | 0.00 | 0.00 | 0.00 | 54 | 1018.4 |
| 20260503033008 | 47 | 200 | 3.0 | 5.0 | 0.00 | 0.00 | 0.00 | 54 | 1018.4 |
| 20260503032510 | 47 | 225 | 2.0 | 5.0 | 0.00 | 0.00 | 0.00 | 52 | 1018.4 |
| 20260503032015 | 47 | 220 | 3.0 | 4.0 | 0.00 | 0.00 | 0.00 | 52 | 1018.5 |
| 20260503031515 | 47 | 227 | 2.0 | 4.0 | 0.00 | 0.00 | 0.00 | 52 | 1018.4 |
| 20260503031011 | 47 | 206 | 2.0 | 3.0 | 0.00 | 0.00 | 0.00 | 54 | 1018.4 |
| 20260503030508 | 47 | 214 | 1.0 | 3.0 | 0.00 | 0.00 | 0.00 | 52 | 1018.4 |
| 20260503030015 | 47 | 233 | 2.0 | 4.0 | 0.00 | 0.00 | 0.00 | 53 | 1018.4 |
| 20260503025508 | 47 | 224 | 2.0 | 4.0 | 0.00 | 0.00 | 0.00 | 54 | 1018.5 |
| 20260503025014 | 47 | 232 | 2.0 | 4.0 | 0.00 | 0.00 | 0.00 | 56 | 1018.5 |
| 20260503024522 | 47 | 228 | 2.0 | 3.0 | 0.00 | 0.00 | 0.00 | 56 | 1018.5 |
| 20260503024011 | 47 | 225 | 2.0 | 3.0 | 0.00 | 0.00 | 0.00 | 57 | 1018.5 |
| 20260503023508 | 47 | 231 | 2.0 | 3.0 | 0.00 | 0.00 | 0.00 | 55 | 1018.5 |
| 20260503023028 | 47 | 221 | 2.0 | 3.0 | 0.00 | 0.00 | 0.00 | 55 | 1018.4 |
| 20260503022509 | 47 | 232 | 2.0 | 2.0 | 0.00 | 0.00 | 0.00 | 56 | 1018.4 |
| 20260503022010 | 47 | 227 | 1.0 | 3.0 | 0.00 | 0.00 | 0.00 | 54 | 1018.4 |
| 20260503021525 | 47 | 236 | 2.0 | 2.0 | 0.00 | 0.00 | 0.00 | 55 | 1018.3 |
| 20260503021007 | 47 | 225 | 2.0 | 2.0 | 0.00 | 0.00 | 0.00 | 55 | 1018.4 |
| 20260503020510 | 47 | 229 | 2.0 | 2.0 | 0.00 | 0.00 | 0.00 | 61 | 1018.3 |
| 20260503020026 | 47 | 217 | 0.0 | 2.0 | 0.00 | 0.00 | 0.00 | 61 | 1018.3 |
| 20260503015509 | 47 | 229 | 0.0 | 1.0 | 0.00 | 0.00 | 0.00 | 59 | 1018.2 |
| 20260503015011 | 47 | 236 | 1.0 | 1.0 | 0.00 | 0.00 | 0.00 | 61 | 1018.2 |
| 20260503014538 | 47 | 230 | 0.0 | 0.0 | 0.00 | 0.00 | 0.00 | 55 | 1018.2 |
| 20260503014010 | 48 | 230 | 0.0 | 0.0 | 0.00 | 0.00 | 0.00 | 52 | 1018.1 |
| 20260503013509 | 48 | 229 | 0.0 | 2.0 | 0.00 | 0.00 | 0.00 | 55 | 1018.1 |
| 20260503013027 | 48 | 230 | 1.0 | 2.0 | 0.00 | 0.00 | 0.00 | 55 | 1018.1 |
| 20260503012511 | 48 | 236 | 0.0 | 0.0 | 0.00 | 0.00 | 0.00 | 55 | 1018.1 |
| 20260503012011 | 49 | 248 | 0.0 | 0.0 | 0.00 | 0.00 | 0.00 | 46 | 1018.1 |
| 20260503011528 | 50 | 249 | 0.0 | 0.0 | 0.00 | 0.00 | 0.00 | 46 | 1018.1 |
| 20260503011008 | 50 | 231 | 0.0 | 1.0 | 0.00 | 0.00 | 0.00 | 46 | 1018.1 |
| 20260503010512 | 51 | 227 | 0.0 | 0.0 | 0.00 | 0.00 | 0.00 | 47 | 1018.0 |
| 20260503010028 | 51 | 233 | 0.0 | 0.0 | 0.00 | 0.00 | 0.00 | 44 | 1018.1 |
| 20260503005511 | 51 | 246 | 0.0 | 1.0 | 0.00 | 0.00 | 0.00 | 42 | 1018.0 |
| 20260503005010 | 51 | 246 | 0.0 | 1.0 | 0.00 | 0.00 | 0.00 | 42 | 1018.1 |
| 20260503004525 | 52 | 247 | 0.0 | 0.0 | 0.00 | 0.00 | 0.00 | 42 | 1018.1 |
| 20260503004010 | 52 | 248 | 0.0 | 0.0 | 0.00 | 0.00 | 0.00 | 44 | 1018.0 |
| 20260503003508 | 53 | 248 | 0.0 | 2.0 | 0.00 | 0.00 | 0.00 | 46 | 1018.0 |
| 20260503003029 | 53 | 248 | 0.0 | 1.0 | 0.00 | 0.00 | 0.00 | 45 | 1018.0 |
| 20260503002510 | 53 | 267 | 0.0 | 2.0 | 0.00 | 0.00 | 0.00 | 40 | 1018.0 |
| 20260503002014 | 53 | 304 | 1.0 | 2.0 | 0.00 | 0.00 | 0.00 | 39 | 1018.1 |
| 20260503001528 | 53 | 307 | 0.0 | 3.0 | 0.00 | 0.00 | 0.00 | 39 | 1018.1 |
| 20260503001008 | 54 | 309 | 2.0 | 3.0 | 0.00 | 0.00 | 0.00 | 39 | 1018.1 |